Location: Hope
(40.9110°N, 74.9680°W)
Time: 12:09:14
(UTC-04:00)

VELOX 1 - Pass Details

Date: 29 July 2021
Orbit: 626 x 643 km, 98.3° (Epoch: 28 September)

Event Time Altitude Azimuth Distance (km) Brightness Sun altitude
Exits shadow 04:52:41 - 187° (S) 2,535 ? -10.7°
Reaches altitude 10° 04:54:01 10° 192° (SSW) 2,017 ? -10.5°
Maximum altitude 04:58:08 39° 261° (W) 961 ? -9.8°
Drops below altitude 10° 05:02:18 10° 331° (NNW) 2,041 ? -9.2°
Sets 05:04:39 0° 339° (NNW) 2,957 ? -8.8°
